Time,TemperatureF,DewpointF,PressureIn,WindDirection,WindDirectionDegrees,WindSpeedMPH,WindSpeedGustMPH,Humidity,HourlyPrecipIn,Conditions,Clouds,dailyrainin,SoftwareType,DateUTC
2013-04-26 00:05:00,61.6,24.0,30.05,SSE,158,1.1,1.3,24,0.00,,,0.00,WUHU216HW,2013-04-26 07:05:00,
2013-04-26 00:15:00,61.2,24.7,30.05,South,180,1.1,1.1,25,0.00,,,0.00,WUHU216HW,2013-04-26 07:15:00,
2013-04-26 00:25:00,60.8,24.4,30.05,SSE,158,0.2,1.1,25,0.00,,,0.00,WUHU216HW,2013-04-26 07:25:00,
2013-04-26 00:35:00,60.5,24.1,30.05,SE,135,0.0,0.4,25,0.00,,,0.00,WUHU216HW,2013-04-26 07:35:00,
2013-04-26 00:45:00,59.9,24.6,30.05,SE,135,0.0,0.4,26,0.00,,,0.00,WUHU216HW,2013-04-26 07:45:00,
2013-04-26 00:55:00,59.4,25.1,30.05,South,180,0.2,0.9,27,0.00,,,0.00,WUHU216HW,2013-04-26 07:55:00,
2013-04-26 01:05:00,58.7,24.5,30.05,SSE,158,1.6,1.6,27,0.00,,,0.00,WUHU216HW,2013-04-26 08:05:00,
2013-04-26 01:15:00,58.1,24.0,30.05,SSE,158,0.0,1.1,27,0.00,,,0.00,WUHU216HW,2013-04-26 08:15:00,
2013-04-26 01:25:00,58.0,24.9,30.05,SE,135,0.0,0.4,28,0.00,,,0.00,WUHU216HW,2013-04-26 08:25:00,
2013-04-26 01:35:00,57.6,24.5,30.05,SE,135,0.0,0.9,28,0.00,,,0.00,WUHU216HW,2013-04-26 08:35:00,
2013-04-26 01:45:00,57.1,25.0,30.05,ESE,113,0.2,0.7,29,0.00,,,0.00,WUHU216HW,2013-04-26 08:45:00,
2013-04-26 01:55:00,56.7,24.7,30.05,WSW,248,0.0,0.4,29,0.00,,,0.00,WUHU216HW,2013-04-26 08:55:00,
2013-04-26 02:05:00,56.5,24.5,30.06,SSE,158,0.2,0.9,29,0.00,,,0.00,WUHU216HW,2013-04-26 09:05:00,
2013-04-26 02:15:00,56.2,24.2,30.06,SSE,158,0.2,1.1,29,0.00,,,0.00,WUHU216HW,2013-04-26 09:15:00,
2013-04-26 02:26:00,55.8,24.9,30.05,South,180,0.2,0.7,30,0.00,,,0.00,WUHU216HW,2013-04-26 09:26:00,
2013-04-26 02:36:00,55.6,25.4,30.06,ESE,113,0.0,0.0,31,0.00,,,0.00,WUHU216HW,2013-04-26 09:36:00,
2013-04-26 02:46:00,55.1,24.9,30.06,ESE,113,0.0,0.2,31,0.00,,,0.00,WUHU216HW,2013-04-26 09:46:00,
2013-04-26 02:56:00,54.9,25.5,30.06,SSE,158,0.2,0.2,32,0.00,,,0.00,WUHU216HW,2013-04-26 09:56:00,
2013-04-26 03:06:00,54.5,25.1,30.06,SSE,158,0.0,0.0,32,0.00,,,0.00,WUHU216HW,2013-04-26 10:06:00,
2013-04-26 03:16:00,54.2,24.8,30.06,SW,225,0.0,0.0,32,0.00,,,0.00,WUHU216HW,2013-04-26 10:16:00,
2013-04-26 03:26:00,53.8,25.2,30.06,SW,225,0.0,0.0,33,0.00,,,0.00,WUHU216HW,2013-04-26 10:26:00,
2013-04-26 03:36:00,53.3,25.5,30.06,SW,225,0.0,0.0,34,0.00,,,0.00,WUHU216HW,2013-04-26 10:36:00,
2013-04-26 03:46:00,52.9,25.8,30.06,SSW,203,0.0,0.0,35,0.00,,,0.00,WUHU216HW,2013-04-26 10:46:00,
2013-04-26 03:56:00,52.7,26.4,30.06,SSE,158,0.0,0.0,36,0.00,,,0.00,WUHU216HW,2013-04-26 10:56:00,
2013-04-26 04:06:00,52.0,25.7,30.06,NE,45,0.0,0.0,36,0.00,,,0.00,WUHU216HW,2013-04-26 11:06:00,
2013-04-26 04:16:00,51.8,26.2,30.06,SW,225,0.0,0.0,37,0.00,,,0.00,WUHU216HW,2013-04-26 11:16:00,
2013-04-26 04:26:00,51.5,26.6,30.06,SW,225,0.0,0.0,38,0.00,,,0.00,WUHU216HW,2013-04-26 11:26:00,
2013-04-26 04:36:00,51.3,27.1,30.06,SW,225,0.0,0.0,39,0.00,,,0.00,WUHU216HW,2013-04-26 11:36:00,
2013-04-26 04:46:00,50.8,27.3,30.07,NE,45,0.4,0.4,40,0.00,,,0.00,WUHU216HW,2013-04-26 11:46:00,
2013-04-26 04:56:00,50.6,27.7,30.07,ENE,68,0.0,0.4,41,0.00,,,0.00,WUHU216HW,2013-04-26 11:56:00,
2013-04-26 05:06:00,50.6,27.1,30.06,East,90,0.0,0.0,40,0.00,,,0.00,WUHU216HW,2013-04-26 12:06:00,
2013-04-26 05:16:00,50.4,27.6,30.06,SW,225,0.0,0.4,41,0.00,,,0.00,WUHU216HW,2013-04-26 12:16:00,
2013-04-26 05:27:00,50.0,27.2,30.07,SW,225,0.0,0.0,41,0.00,,,0.00,WUHU216HW,2013-04-26 12:27:00,
2013-04-26 05:37:00,49.7,26.9,30.07,SSE,158,0.0,1.1,41,0.00,,,0.00,WUHU216HW,2013-04-26 12:37:00,
2013-04-26 05:47:00,49.5,26.7,30.07,SSE,158,0.0,0.2,41,0.00,,,0.00,WUHU216HW,2013-04-26 12:47:00,
2013-04-26 05:57:00,49.5,26.2,30.08,SE,135,0.0,0.7,40,0.00,,,0.00,WUHU216HW,2013-04-26 12:57:00,
2013-04-26 06:07:00,49.3,26.0,30.09,ESE,113,0.0,0.2,40,0.00,,,0.00,WUHU216HW,2013-04-26 13:07:00,
2013-04-26 06:17:00,49.3,26.0,30.09,SE,135,0.2,0.7,40,0.00,,,0.00,WUHU216HW,2013-04-26 13:17:00,
2013-04-26 06:27:00,50.0,27.2,30.09,SE,135,0.0,0.0,41,0.00,,,0.00,WUHU216HW,2013-04-26 13:27:00,
2013-04-26 06:37:00,50.8,27.8,30.10,SSW,203,0.0,0.4,41,0.00,,,0.00,WUHU216HW,2013-04-26 13:37:00,
2013-04-26 06:47:00,51.5,28.5,30.11,NNE,23,0.0,0.7,41,0.00,,,0.00,WUHU216HW,2013-04-26 13:47:00,
2013-04-26 06:57:00,52.6,30.1,30.11,West,270,0.2,1.1,42,0.00,,,0.00,WUHU216HW,2013-04-26 13:57:00,
2013-04-26 07:07:00,53.6,30.4,30.11,South,180,0.4,1.1,41,0.00,,,0.00,WUHU216HW,2013-04-26 14:07:00,
2013-04-26 07:17:00,54.7,30.9,30.11,West,270,0.0,1.1,40,0.00,,,0.00,WUHU216HW,2013-04-26 14:17:00,
2013-04-26 07:27:00,56.0,31.3,30.11,NW,315,0.0,0.4,39,0.00,,,0.00,WUHU216HW,2013-04-26 14:27:00,
2013-04-26 07:37:00,57.4,31.9,30.11,West,270,0.4,1.1,38,0.00,,,0.00,WUHU216HW,2013-04-26 14:37:00,
2013-04-26 07:47:00,58.7,32.3,30.12,NE,45,1.1,1.8,37,0.00,,,0.00,WUHU216HW,2013-04-26 14:47:00,
2013-04-26 07:57:00,59.9,33.4,30.12,NNE,23,0.4,1.8,37,0.00,,,0.00,WUHU216HW,2013-04-26 14:57:00,
2013-04-26 08:07:00,61.2,32.4,30.12,North,0,0.4,1.8,34,0.00,,,0.00,WUHU216HW,2013-04-26 15:07:00,
2013-04-26 08:17:00,62.5,32.8,30.11,West,270,1.1,1.6,33,0.00,,,0.00,WUHU216HW,2013-04-26 15:17:00,
2013-04-26 08:27:00,64.1,33.5,30.12,West,270,2.0,2.5,32,0.00,,,0.00,WUHU216HW,2013-04-26 15:27:00,
2013-04-26 08:38:00,65.3,33.9,30.12,NW,315,0.0,2.2,31,0.00,,,0.00,WUHU216HW,2013-04-26 15:38:00,
2013-04-26 08:48:00,66.4,35.7,30.12,NW,315,1.6,2.2,32,0.00,,,0.00,WUHU216HW,2013-04-26 15:48:00,
2013-04-26 08:58:00,67.9,35.3,30.12,NNW,338,1.3,2.0,30,0.00,,,0.00,WUHU216HW,2013-04-26 15:58:00,
2013-04-26 09:08:00,69.1,35.5,30.12,WNW,293,3.8,3.8,29,0.00,,,0.00,WUHU216HW,2013-04-26 16:08:00,
2013-04-26 09:18:00,70.6,35.7,30.12,West,270,0.4,3.1,28,0.00,,,0.00,WUHU216HW,2013-04-26 16:18:00,
2013-04-26 09:28:00,71.6,35.7,30.12,NNW,338,1.6,2.5,27,0.00,,,0.00,WUHU216HW,2013-04-26 16:28:00,
2013-04-26 09:38:00,72.7,34.5,30.12,NE,45,2.9,2.9,25,0.00,,,0.00,WUHU216HW,2013-04-26 16:38:00,
2013-04-26 09:48:00,73.3,34.9,30.11,NNE,23,4.9,4.9,25,0.00,,,0.00,WUHU216HW,2013-04-26 16:48:00,
2013-04-26 09:58:00,74.0,35.6,30.12,West,270,2.5,4.5,25,0.00,,,0.00,WUHU216HW,2013-04-26 16:58:00,
2013-04-26 10:08:00,75.4,35.7,30.11,WSW,248,3.8,3.8,24,0.00,,,0.00,WUHU216HW,2013-04-26 17:08:00,
2013-04-26 10:18:00,76.9,34.9,30.11,SW,225,1.8,3.4,22,0.00,,,0.00,WUHU216HW,2013-04-26 17:18:00,
2013-04-26 10:28:00,77.8,35.7,30.11,SE,135,1.3,4.0,22,0.00,,,0.00,WUHU216HW,2013-04-26 17:28:00,
2013-04-26 10:38:00,78.3,35.0,30.11,NE,45,0.9,3.6,21,0.00,,,0.00,WUHU216HW,2013-04-26 17:38:00,
2013-04-26 10:48:00,78.3,32.3,30.11,NE,45,1.6,4.5,19,0.00,,,0.00,WUHU216HW,2013-04-26 17:48:00,
2013-04-26 10:58:00,78.1,32.1,30.11,WSW,248,1.1,4.9,19,0.00,,,0.00,WUHU216HW,2013-04-26 17:58:00,
2013-04-26 11:08:00,79.2,33.0,30.10,West,270,2.0,5.1,19,0.00,,,0.00,WUHU216HW,2013-04-26 18:08:00,
2013-04-26 11:18:00,80.6,32.6,30.10,South,180,1.6,3.4,18,0.00,,,0.00,WUHU216HW,2013-04-26 18:18:00,
2013-04-26 11:28:00,81.0,31.2,30.10,North,0,2.5,5.4,17,0.00,,,0.00,WUHU216HW,2013-04-26 18:28:00,
2013-04-26 11:38:00,81.5,33.3,30.10,WNW,293,2.9,3.8,18,0.00,,,0.00,WUHU216HW,2013-04-26 18:38:00,
2013-04-26 11:49:00,82.1,30.4,30.09,NNW,338,3.6,6.3,16,0.00,,,0.00,WUHU216HW,2013-04-26 18:49:00,
2013-04-26 11:59:00,82.1,32.0,30.09,NW,315,3.1,3.1,17,0.00,,,0.00,WUHU216HW,2013-04-26 18:59:00,
2013-04-26 12:09:00,82.4,30.7,30.09,NNW,338,4.0,5.8,16,0.00,,,0.00,WUHU216HW,2013-04-26 19:09:00,
2013-04-26 12:19:00,83.3,31.3,30.08,SSW,203,1.8,6.5,16,0.00,,,0.00,WUHU216HW,2013-04-26 19:19:00,
2013-04-26 12:29:00,84.1,30.2,30.08,WNW,293,3.4,6.5,15,0.00,,,0.00,WUHU216HW,2013-04-26 19:29:00,
2013-04-26 12:39:00,83.9,26.6,30.08,NE,45,4.5,6.9,13,0.00,,,0.00,WUHU216HW,2013-04-26 19:39:00,
2013-04-26 12:49:00,83.3,26.3,30.08,NW,315,4.0,5.4,13,0.00,,,0.00,WUHU216HW,2013-04-26 19:49:00,
2013-04-26 12:59:00,84.8,27.4,30.07,West,270,5.4,6.0,13,0.00,,,0.00,WUHU216HW,2013-04-26 19:59:00,
2013-04-26 13:09:00,86.0,26.6,30.07,NNE,23,1.8,8.9,12,0.00,,,0.00,WUHU216HW,2013-04-26 20:09:00,
2013-04-26 13:19:00,86.0,26.6,30.06,WNW,293,6.0,6.0,12,0.00,,,0.00,WUHU216HW,2013-04-26 20:19:00,
2013-04-26 13:29:00,86.4,26.9,30.06,NW,315,3.1,3.1,12,0.00,,,0.00,WUHU216HW,2013-04-26 20:29:00,
2013-04-26 13:39:00,86.8,27.3,30.06,NW,315,2.7,8.5,12,0.00,,,0.00,WUHU216HW,2013-04-26 20:39:00,
2013-04-26 13:49:00,86.9,27.4,30.05,NW,315,1.8,6.7,12,0.00,,,0.00,WUHU216HW,2013-04-26 20:49:00,
2013-04-26 13:59:00,87.5,24.4,30.05,NW,315,5.6,5.6,10,0.00,,,0.00,WUHU216HW,2013-04-26 20:59:00,
2013-04-26 14:09:00,87.1,24.1,30.05,NW,315,4.7,8.5,10,0.00,,,0.00,WUHU216HW,2013-04-26 21:09:00,
2013-04-26 14:19:00,87.3,25.9,30.05,NNW,338,8.1,8.1,11,0.00,,,0.00,WUHU216HW,2013-04-26 21:19:00,
2013-04-26 14:29:00,87.3,27.6,30.05,NW,315,5.6,9.2,12,0.00,,,0.00,WUHU216HW,2013-04-26 21:29:00,
2013-04-26 14:39:00,87.1,27.6,30.04,NNW,338,1.3,5.4,12,0.00,,,0.00,WUHU216HW,2013-04-26 21:39:00,
2013-04-26 14:49:00,87.7,29.7,30.04,NNE,23,8.5,8.5,13,0.00,,,0.00,WUHU216HW,2013-04-26 21:49:00,
2013-04-26 15:00:00,87.8,28.1,30.03,NNW,338,4.0,6.3,12,0.00,,,0.00,WUHU216HW,2013-04-26 22:00:00,
2013-04-26 15:10:00,87.5,27.8,30.03,WNW,293,4.0,7.8,12,0.00,,,0.00,WUHU216HW,2013-04-26 22:10:00,
2013-04-26 15:20:00,88.2,26.6,30.03,SSW,203,2.9,6.0,11,0.00,,,0.00,WUHU216HW,2013-04-26 22:20:00,
2013-04-26 15:30:00,88.6,25.2,30.02,WSW,248,4.3,9.4,10,0.00,,,0.00,WUHU216HW,2013-04-26 22:30:00,
2013-04-26 15:40:00,88.4,25.0,30.02,NNW,338,2.9,9.2,10,0.00,,,0.00,WUHU216HW,2013-04-26 22:40:00,
2013-04-26 15:50:00,88.6,26.9,30.02,West,270,1.8,9.6,11,0.00,,,0.00,WUHU216HW,2013-04-26 22:50:00,
2013-04-26 16:00:00,87.8,26.4,30.02,NNW,338,5.4,7.8,11,0.00,,,0.00,WUHU216HW,2013-04-26 23:00:00,
2013-04-26 16:10:00,87.7,26.3,30.02,WNW,293,2.5,8.7,11,0.00,,,0.00,WUHU216HW,2013-04-26 23:10:00,
2013-04-26 16:20:00,88.0,24.8,30.01,NNW,338,4.9,5.6,10,0.00,,,0.00,WUHU216HW,2013-04-26 23:20:00,
2013-04-26 16:30:00,87.8,26.4,30.02,North,0,4.7,7.4,11,0.00,,,0.00,WUHU216HW,2013-04-26 23:30:00,
2013-04-26 16:40:00,87.3,27.6,30.01,West,270,3.1,5.4,12,0.00,,,0.00,WUHU216HW,2013-04-26 23:40:00,
2013-04-26 16:50:00,87.1,27.6,30.02,North,0,5.1,9.4,12,0.00,,,0.00,WUHU216HW,2013-04-26 23:50:00,
2013-04-26 17:05:00,86.8,27.3,30.01,NNW,338,2.5,5.1,12,0.00,,,0.00,WUHU216HW,2013-04-27 00:05:00,
2013-04-26 17:12:00,86.6,27.1,30.01,NNW,338,6.3,6.3,12,0.00,,,0.00,WUHU216HW,2013-04-27 00:12:00,
2013-04-26 17:22:00,86.0,26.6,30.01,NNW,338,3.4,7.2,12,0.00,,,0.00,WUHU216HW,2013-04-27 00:22:00,
2013-04-26 17:32:00,85.7,26.4,30.01,NW,315,8.3,8.3,12,0.00,,,0.00,WUHU216HW,2013-04-27 00:32:00,
2013-04-26 17:42:00,85.3,26.1,30.01,North,0,3.6,7.4,12,0.00,,,0.00,WUHU216HW,2013-04-27 00:42:00,
2013-04-26 17:52:00,84.8,25.7,30.01,NNW,338,4.5,6.9,12,0.00,,,0.00,WUHU216HW,2013-04-27 00:52:00,
2013-04-26 18:02:00,84.2,26.9,30.01,NW,315,2.0,7.6,13,0.00,,,0.00,WUHU216HW,2013-04-27 01:02:00,
2013-04-26 18:12:00,83.9,26.6,30.01,NNE,23,3.4,8.9,13,0.00,,,0.00,WUHU216HW,2013-04-27 01:12:00,
2013-04-26 18:22:00,83.2,26.1,30.02,NE,45,2.5,8.1,13,0.00,,,0.00,WUHU216HW,2013-04-27 01:22:00,
2013-04-26 18:32:00,82.6,25.8,30.02,NNW,338,1.8,6.5,13,0.00,,,0.00,WUHU216HW,2013-04-27 01:32:00,
2013-04-26 18:42:00,81.7,25.0,30.02,NW,315,1.8,5.4,13,0.00,,,0.00,WUHU216HW,2013-04-27 01:42:00,
2013-04-26 18:52:00,81.0,24.5,30.03,NW,315,2.9,6.3,13,0.00,,,0.00,WUHU216HW,2013-04-27 01:52:00,
2013-04-26 19:02:00,80.3,23.9,30.03,NW,315,3.4,5.4,13,0.00,,,0.00,WUHU216HW,2013-04-27 02:02:00,
2013-04-26 19:13:00,79.6,26.7,30.03,NW,315,2.5,6.9,15,0.00,,,0.00,WUHU216HW,2013-04-27 02:13:00,
2013-04-26 19:23:00,78.8,26.0,30.03,NW,315,2.0,4.0,15,0.00,,,0.00,WUHU216HW,2013-04-27 02:23:00,
2013-04-26 19:33:00,78.1,25.5,30.03,NW,315,3.4,4.9,15,0.00,,,0.00,WUHU216HW,2013-04-27 02:33:00,
2013-04-26 19:43:00,77.6,25.0,30.03,North,0,1.8,4.0,15,0.00,,,0.00,WUHU216HW,2013-04-27 02:43:00,
2013-04-26 19:53:00,77.0,26.3,30.04,NNW,338,1.8,4.0,16,0.00,,,0.00,WUHU216HW,2013-04-27 02:53:00,
2013-04-26 20:03:00,76.7,26.0,30.04,NNW,338,2.9,4.0,16,0.00,,,0.00,WUHU216HW,2013-04-27 03:03:00,
2013-04-26 20:13:00,76.1,27.3,30.04,NNW,338,1.3,4.5,17,0.00,,,0.00,WUHU216HW,2013-04-27 03:13:00,
2013-04-26 20:23:00,75.6,26.8,30.04,NNW,338,1.8,4.0,17,0.00,,,0.00,WUHU216HW,2013-04-27 03:23:00,
2013-04-26 20:33:00,75.1,26.4,30.05,NW,315,1.1,2.7,17,0.00,,,0.00,WUHU216HW,2013-04-27 03:33:00,
2013-04-26 20:43:00,74.5,26.0,30.05,NNW,338,0.0,2.5,17,0.00,,,0.00,WUHU216HW,2013-04-27 03:43:00,
2013-04-26 20:53:00,73.8,27.1,30.05,NE,45,0.0,0.9,18,0.00,,,0.00,WUHU216HW,2013-04-27 03:53:00,
2013-04-26 21:03:00,72.7,26.2,30.05,ESE,113,0.4,0.4,18,0.00,,,0.00,WUHU216HW,2013-04-27 04:03:00,
2013-04-26 21:13:00,71.5,26.6,30.05,ESE,113,1.1,1.8,19,0.00,,,0.00,WUHU216HW,2013-04-27 04:13:00,
2013-04-26 21:23:00,70.9,26.3,30.06,ESE,113,0.0,2.0,19,0.00,,,0.00,WUHU216HW,2013-04-27 04:23:00,
2013-04-26 21:33:00,70.4,25.8,30.06,SW,225,0.0,0.2,19,0.00,,,0.00,WUHU216HW,2013-04-27 04:33:00,
2013-04-26 21:43:00,69.5,27.7,30.06,SSW,203,0.7,0.7,21,0.00,,,0.00,WUHU216HW,2013-04-27 04:43:00,
2013-04-26 21:53:00,68.8,27.1,30.07,SSE,158,0.4,1.1,21,0.00,,,0.00,WUHU216HW,2013-04-27 04:53:00,
2013-04-26 22:03:00,68.0,26.6,30.07,SSE,158,1.6,1.6,21,0.00,,,0.00,WUHU216HW,2013-04-27 05:03:00,
2013-04-26 22:13:00,67.5,27.1,30.07,West,270,0.4,1.3,22,0.00,,,0.00,WUHU216HW,2013-04-27 05:13:00,
2013-04-26 22:24:00,67.0,26.6,30.07,SE,135,0.0,0.7,22,0.00,,,0.00,WUHU216HW,2013-04-27 05:24:00,
2013-04-26 22:34:00,66.1,26.8,30.07,SE,135,1.6,1.6,23,0.00,,,0.00,WUHU216HW,2013-04-27 05:34:00,
2013-04-26 22:44:00,66.1,25.8,30.07,SE,135,1.1,1.8,22,0.00,,,0.00,WUHU216HW,2013-04-27 05:44:00,
2013-04-26 22:54:00,65.9,26.6,30.07,SW,225,0.4,1.6,23,0.00,,,0.00,WUHU216HW,2013-04-27 05:54:00,
2013-04-26 23:04:00,65.5,26.4,30.08,West,270,0.0,0.7,23,0.00,,,0.00,WUHU216HW,2013-04-27 06:04:00,
2013-04-26 23:14:00,64.8,25.7,30.08,SSE,158,1.3,1.3,23,0.00,,,0.00,WUHU216HW,2013-04-27 06:14:00,
2013-04-26 23:24:00,64.1,26.2,30.08,ESE,113,0.0,1.1,24,0.00,,,0.00,WUHU216HW,2013-04-27 06:24:00,
2013-04-26 23:34:00,63.7,26.8,30.08,NNE,23,0.2,0.9,25,0.00,,,0.00,WUHU216HW,2013-04-27 06:34:00,
2013-04-26 23:44:00,63.2,26.4,30.08,SE,135,0.0,1.1,25,0.00,,,0.00,WUHU216HW,2013-04-27 06:44:00,
2013-04-26 23:54:00,62.6,25.9,30.08,SE,135,0.0,0.0,25,0.00,,,0.00,WUHU216HW,2013-04-27 06:54:00,